Location: Litvinovka
(48.6667°N, 34.3500°E)
Time: 11:24:35
(UTC+00:00)

NOSS 8 (F) - Pass Details

Date: 18 September 2020
Orbit: 385 x 1787 km, 63.3° (Epoch: 25 October)

Event Time Altitude Azimuth Distance (km) Brightness Sun altitude
Rises 16:18:18 0° 214° (SW) 2,498 8.5 -5.7°
Reaches altitude 10° 16:20:33 10° 212° (SSW) 1,521 7.4 -6.1°
Maximum altitude 16:23:44 68° 129° (SE) 428 4.1 -6.6°
Drops below altitude 10° 16:26:44 10° 46° (NE) 1,421 6.6 -7.1°
Sets 16:28:45 0° 44° (NE) 2,311 7.7 -7.4°
